Location: Orange
(33.2833°S, 149.1000°E)
Time: 03:52:35
(UTC+11:00)

Envisat - Pass Details

Date: 01 October 2022
Orbit: 763 x 765 km, 98.2° (Epoch: 30 November)

Event Time Altitude Azimuth Distance (km) Brightness Sun altitude
Exits shadow 03:57:02 20° 356° (N) 1,726 4.6 -22.2°
Maximum altitude 04:00:32 61° 281° (W) 875 2.9 -21.5°
Drops below altitude 10° 04:05:36 10° 200° (SSW) 2,325 5.5 -20.5°
Sets 04:07:58 0° 196° (SSW) 3,259 6.3 -20.0°
